Time,TemperatureF,DewpointF,PressureIn,WindDirection,WindDirectionDegrees,WindSpeedMPH,WindSpeedGustMPH,Humidity,HourlyPrecipIn,Conditions,Clouds,dailyrainin,SoftwareType,DateUTC
2013-02-21 00:00:00,43.5,40.5,30.14,WNW,282,0.0,1.0,89,0.00,,---,0.01,VWS V14.00,2013-02-21 05:00:00,
2013-02-21 00:05:00,43.3,40.3,30.13,WNW,282,0.0,0.0,89,0.00,,---,0.00,VWS V14.00,2013-02-21 05:05:00,
2013-02-21 00:10:00,43.2,39.9,30.13,WNW,282,0.0,0.0,88,0.00,,---,0.00,VWS V14.00,2013-02-21 05:10:00,
2013-02-21 00:15:00,43.0,38.5,30.13,WNW,288,1.0,2.0,84,0.00,,---,0.00,VWS V14.00,2013-02-21 05:15:00,
2013-02-21 00:20:00,42.9,37.5,30.13,WNW,300,0.0,2.0,81,0.00,,---,0.00,VWS V14.00,2013-02-21 05:20:00,
2013-02-21 00:25:00,42.9,37.2,30.13,NW,313,0.0,2.0,80,0.00,,---,0.00,VWS V14.00,2013-02-21 05:25:00,
2013-02-21 00:30:00,42.8,36.8,30.13,NW,316,0.0,2.0,79,0.00,,---,0.00,VWS V14.00,2013-02-21 05:30:00,
2013-02-21 00:35:00,42.7,36.7,30.13,NW,318,0.0,0.0,79,0.00,,---,0.00,VWS V14.00,2013-02-21 05:35:00,
2013-02-21 00:40:00,42.7,37.0,30.13,NW,318,0.0,0.0,80,0.00,,---,0.00,VWS V14.00,2013-02-21 05:40:00,
2013-02-21 00:45:00,42.6,38.1,30.12,NW,318,0.0,0.0,84,0.00,,---,0.00,VWS V14.00,2013-02-21 05:45:00,
2013-02-21 00:50:00,42.5,38.6,30.12,NW,318,0.0,0.0,86,0.00,,---,0.00,VWS V14.00,2013-02-21 05:50:00,
2013-02-21 00:55:00,42.3,37.8,30.13,NW,318,0.0,0.0,84,0.00,,---,0.00,VWS V14.00,2013-02-21 05:55:00,
2013-02-21 01:00:00,42.2,39.2,30.13,NW,318,0.0,0.0,89,0.00,,---,0.00,VWS V14.00,2013-02-21 06:00:00,
2013-02-21 01:05:00,42.2,37.7,30.14,NNW,347,16.0,17.0,84,0.00,,---,0.00,VWS V14.00,2013-02-21 06:05:00,
2013-02-21 01:10:00,42.4,36.0,30.14,North,356,11.0,17.0,78,0.00,,---,0.00,VWS V14.00,2013-02-21 06:10:00,
2013-02-21 01:15:00,42.5,35.8,30.15,North,358,9.0,17.0,77,0.00,,---,0.00,VWS V14.00,2013-02-21 06:15:00,
2013-02-21 01:20:00,42.5,35.5,30.15,North,0,11.0,17.0,76,0.00,,---,0.00,VWS V14.00,2013-02-21 06:20:00,
2013-02-21 01:25:00,42.4,34.7,30.14,North,0,9.0,17.0,74,0.00,,---,0.00,VWS V14.00,2013-02-21 06:25:00,
2013-02-21 01:30:00,42.2,34.5,30.15,North,0,7.0,7.0,74,0.00,,---,0.00,VWS V14.00,2013-02-21 06:30:00,
2013-02-21 01:35:00,42.1,34.4,30.15,North,354,9.0,11.0,74,0.00,,---,0.00,VWS V14.00,2013-02-21 06:35:00,
2013-02-21 01:40:00,41.9,34.2,30.15,North,355,7.0,11.0,74,0.00,,---,0.00,VWS V14.00,2013-02-21 06:40:00,
2013-02-21 01:45:00,41.8,33.8,30.15,North,359,8.0,11.0,73,0.00,,---,0.00,VWS V14.00,2013-02-21 06:45:00,
2013-02-21 01:50:00,41.7,34.0,30.14,NNE,14,7.0,11.0,74,0.00,,---,0.00,VWS V14.00,2013-02-21 06:50:00,
2013-02-21 01:55:00,41.6,33.6,30.14,North,8,7.0,11.0,73,0.00,,---,0.00,VWS V14.00,2013-02-21 06:55:00,
2013-02-21 02:00:00,41.5,33.5,30.14,NNE,22,7.0,7.0,73,0.00,,---,0.00,VWS V14.00,2013-02-21 07:00:00,
2013-02-21 02:05:00,41.4,33.4,30.14,North,9,3.0,9.0,73,0.00,,---,0.00,VWS V14.00,2013-02-21 07:05:00,
2013-02-21 02:10:00,41.3,33.3,30.15,North,1,6.0,9.0,73,0.00,,---,0.00,VWS V14.00,2013-02-21 07:10:00,
2013-02-21 02:15:00,41.2,32.9,30.15,NNE,15,5.0,9.0,72,0.00,,---,0.00,VWS V14.00,2013-02-21 07:15:00,
2013-02-21 02:20:00,41.0,32.3,30.15,North,9,7.0,9.0,71,0.00,,---,0.00,VWS V14.00,2013-02-21 07:20:00,
2013-02-21 02:25:00,41.0,33.0,30.15,North,3,8.0,9.0,73,0.00,,---,0.00,VWS V14.00,2013-02-21 07:25:00,
2013-02-21 02:30:00,40.8,32.8,30.15,North,349,9.0,9.0,73,0.00,,---,0.00,VWS V14.00,2013-02-21 07:30:00,
2013-02-21 02:35:00,40.8,32.8,30.15,North,5,8.0,11.0,73,0.00,,---,0.00,VWS V14.00,2013-02-21 07:35:00,
2013-02-21 02:40:00,40.8,33.2,30.15,NNW,344,9.0,11.0,74,0.00,,---,0.00,VWS V14.00,2013-02-21 07:40:00,
2013-02-21 02:45:00,40.7,33.1,30.15,North,6,10.0,12.0,74,0.00,,---,0.00,VWS V14.00,2013-02-21 07:45:00,
2013-02-21 02:50:00,40.7,33.1,30.15,North,1,10.0,12.0,74,0.00,,---,0.00,VWS V14.00,2013-02-21 07:50:00,
2013-02-21 02:55:00,40.5,32.5,30.15,North,0,9.0,12.0,73,0.00,,---,0.00,VWS V14.00,2013-02-21 07:55:00,
2013-02-21 03:00:00,40.4,32.4,30.14,North,7,2.0,4.0,73,0.00,,---,0.00,VWS V14.00,2013-02-21 08:00:00,
2013-02-21 03:05:00,40.3,32.3,30.14,NNE,22,2.0,7.0,73,0.00,,---,0.00,VWS V14.00,2013-02-21 08:05:00,
2013-02-21 03:10:00,40.2,31.9,30.15,NNE,14,0.0,7.0,72,0.00,,---,0.00,VWS V14.00,2013-02-21 08:10:00,
2013-02-21 03:15:00,40.0,31.4,30.15,NNE,25,0.0,7.0,71,0.00,,---,0.00,VWS V14.00,2013-02-21 08:15:00,
2013-02-21 03:20:00,39.9,31.3,30.14,North,0,3.0,7.0,71,0.00,,---,0.00,VWS V14.00,2013-02-21 08:20:00,
2013-02-21 03:25:00,39.6,31.7,30.14,North,7,6.0,7.0,73,0.00,,---,0.00,VWS V14.00,2013-02-21 08:25:00,
2013-02-21 03:30:00,39.5,31.6,30.15,North,4,3.0,4.0,73,0.00,,---,0.00,VWS V14.00,2013-02-21 08:30:00,
2013-02-21 03:35:00,39.4,31.5,30.15,North,1,3.0,7.0,73,0.00,,---,0.00,VWS V14.00,2013-02-21 08:35:00,
2013-02-21 03:40:00,39.3,31.4,30.15,North,1,7.0,7.0,73,0.00,,---,0.00,VWS V14.00,2013-02-21 08:40:00,
2013-02-21 03:45:00,39.2,31.6,30.15,North,0,5.0,8.0,74,0.00,,---,0.00,VWS V14.00,2013-02-21 08:45:00,
2013-02-21 03:50:00,39.1,31.2,30.15,North,1,5.0,8.0,73,0.00,,---,0.00,VWS V14.00,2013-02-21 08:50:00,
2013-02-21 03:55:00,38.9,31.3,30.15,North,0,3.0,8.0,74,0.00,,---,0.00,VWS V14.00,2013-02-21 08:55:00,
2013-02-21 04:00:00,38.8,30.9,30.15,North,0,7.0,7.0,73,0.00,,---,0.00,VWS V14.00,2013-02-21 09:00:00,
2013-02-21 04:05:00,38.6,30.4,30.15,North,0,7.0,9.0,72,0.00,,---,0.00,VWS V14.00,2013-02-21 09:05:00,
2013-02-21 04:10:00,38.5,30.6,30.16,North,3,5.0,9.0,73,0.00,,---,0.00,VWS V14.00,2013-02-21 09:10:00,
2013-02-21 04:15:00,38.3,30.4,30.16,North,5,7.0,9.0,73,0.00,,---,0.00,VWS V14.00,2013-02-21 09:15:00,
2013-02-21 04:20:00,38.1,29.9,30.17,North,0,5.0,9.0,72,0.00,,---,0.00,VWS V14.00,2013-02-21 09:20:00,
2013-02-21 04:25:00,38.1,29.9,30.17,North,0,7.0,9.0,72,0.00,,---,0.00,VWS V14.00,2013-02-21 09:25:00,
2013-02-21 04:30:00,38.0,29.8,30.17,North,0,7.0,7.0,72,0.00,,---,0.00,VWS V14.00,2013-02-21 09:30:00,
2013-02-21 04:35:00,37.9,29.7,30.17,North,0,6.0,9.0,72,0.00,,---,0.00,VWS V14.00,2013-02-21 09:35:00,
2013-02-21 04:40:00,37.8,29.6,30.17,North,0,3.0,9.0,72,0.00,,---,0.00,VWS V14.00,2013-02-21 09:40:00,
2013-02-21 04:45:00,37.7,29.2,30.17,North,3,8.0,10.0,71,0.00,,---,0.00,VWS V14.00,2013-02-21 09:45:00,
2013-02-21 04:50:00,37.6,29.1,30.17,North,0,6.0,10.0,71,0.00,,---,0.00,VWS V14.00,2013-02-21 09:50:00,
2013-02-21 04:55:00,37.6,29.1,30.17,North,0,8.0,11.0,71,0.00,,---,0.00,VWS V14.00,2013-02-21 09:55:00,
2013-02-21 05:00:00,37.5,28.6,30.17,North,2,10.0,11.0,70,0.00,,---,0.00,VWS V14.00,2013-02-21 10:00:00,
2013-02-21 05:05:00,37.4,29.2,30.17,North,1,10.0,11.0,72,0.00,,---,0.00,VWS V14.00,2013-02-21 10:05:00,
2013-02-21 05:10:00,37.4,29.2,30.17,North,4,11.0,11.0,72,0.00,,---,0.00,VWS V14.00,2013-02-21 10:10:00,
2013-02-21 05:15:00,37.3,29.1,30.17,North,0,7.0,12.0,72,0.00,,---,0.00,VWS V14.00,2013-02-21 10:15:00,
2013-02-21 05:20:00,37.3,28.8,30.18,North,0,6.0,12.0,71,0.00,,---,0.00,VWS V14.00,2013-02-21 10:20:00,
2013-02-21 05:25:00,37.2,29.0,30.19,North,0,7.0,12.0,72,0.00,,---,0.00,VWS V14.00,2013-02-21 10:25:00,
2013-02-21 05:30:00,37.2,28.7,30.19,North,0,5.0,6.0,71,0.00,,---,0.00,VWS V14.00,2013-02-21 10:30:00,
2013-02-21 05:35:00,37.1,28.6,30.19,North,359,6.0,10.0,71,0.00,,---,0.00,VWS V14.00,2013-02-21 10:35:00,
2013-02-21 05:40:00,37.1,28.2,30.19,North,1,8.0,10.0,70,0.00,,---,0.00,VWS V14.00,2013-02-21 10:40:00,
2013-02-21 05:45:00,37.0,28.5,30.19,North,354,8.0,10.0,71,0.00,,---,0.00,VWS V14.00,2013-02-21 10:45:00,
2013-02-21 05:50:00,37.0,28.5,30.20,North,357,8.0,10.0,71,0.00,,---,0.00,VWS V14.00,2013-02-21 10:50:00,
2013-02-21 05:55:00,36.9,28.4,30.20,North,0,2.0,10.0,71,0.00,,---,0.00,VWS V14.00,2013-02-21 10:55:00,
2013-02-21 06:00:00,36.8,28.0,30.20,North,0,6.0,10.0,70,0.00,,---,0.00,VWS V14.00,2013-02-21 11:00:00,
2013-02-21 06:05:00,36.7,28.5,30.20,North,358,4.0,9.0,72,0.00,,---,0.00,VWS V14.00,2013-02-21 11:05:00,
2013-02-21 06:10:00,36.6,28.4,30.20,North,0,5.0,9.0,72,0.00,,---,0.00,VWS V14.00,2013-02-21 11:10:00,
2013-02-21 06:15:00,36.4,27.9,30.20,North,359,4.0,9.0,71,0.00,,---,0.00,VWS V14.00,2013-02-21 11:15:00,
2013-02-21 06:20:00,36.3,28.1,30.20,North,0,6.0,9.0,72,0.00,,---,0.00,VWS V14.00,2013-02-21 11:20:00,
2013-02-21 06:25:00,36.2,28.1,30.20,North,351,8.0,9.0,72,0.00,,---,0.00,VWS V14.00,2013-02-21 11:25:00,
2013-02-21 06:30:00,36.1,28.0,30.20,North,0,3.0,9.0,72,0.00,,---,0.00,VWS V14.00,2013-02-21 11:30:00,
2013-02-21 06:35:00,36.1,28.6,30.20,North,0,5.0,8.0,74,0.00,,---,0.00,VWS V14.00,2013-02-21 11:35:00,
2013-02-21 06:40:00,36.1,29.0,30.20,North,2,7.0,9.0,75,0.00,,---,0.00,VWS V14.00,2013-02-21 11:40:00,
2013-02-21 06:45:00,36.1,29.3,30.20,North,0,7.0,9.0,76,0.00,,---,0.00,VWS V14.00,2013-02-21 11:45:00,
2013-02-21 06:50:00,36.0,29.2,30.20,North,0,6.0,9.0,76,0.00,,---,0.00,VWS V14.00,2013-02-21 11:50:00,
2013-02-21 06:55:00,36.0,29.8,30.20,North,3,8.0,9.0,78,0.00,,---,0.00,VWS V14.00,2013-02-21 11:55:00,
2013-02-21 07:00:00,36.0,29.8,30.21,North,0,5.0,9.0,78,0.00,,---,0.00,VWS V14.00,2013-02-21 12:00:00,
2013-02-21 07:05:00,36.1,30.5,30.21,North,0,6.0,8.0,80,0.00,,---,0.00,VWS V14.00,2013-02-21 12:05:00,
2013-02-21 07:10:00,36.1,30.8,30.21,North,2,7.0,8.0,81,0.00,,---,0.00,VWS V14.00,2013-02-21 12:10:00,
2013-02-21 07:15:00,36.2,31.2,30.21,North,0,6.0,9.0,82,0.00,,---,0.00,VWS V14.00,2013-02-21 12:15:00,
2013-02-21 07:20:00,36.3,31.3,30.22,North,8,7.0,9.0,82,0.00,,---,0.00,VWS V14.00,2013-02-21 12:20:00,
2013-02-21 07:25:00,36.3,31.9,30.22,NNE,18,7.0,9.0,84,0.00,,---,0.00,VWS V14.00,2013-02-21 12:25:00,
2013-02-21 07:30:00,36.3,31.9,30.22,NNE,20,8.0,8.0,84,0.00,,---,0.00,VWS V14.00,2013-02-21 12:30:00,
2013-02-21 07:35:00,36.4,32.0,30.23,North,5,9.0,11.0,84,0.00,,---,0.00,VWS V14.00,2013-02-21 12:35:00,
2013-02-21 07:40:00,36.5,32.7,30.22,North,4,9.0,11.0,86,0.00,,---,0.00,VWS V14.00,2013-02-21 12:40:00,
2013-02-21 07:45:00,36.6,32.8,30.23,NNE,25,11.0,11.0,86,0.00,,---,0.00,VWS V14.00,2013-02-21 12:45:00,
2013-02-21 07:50:00,36.7,33.2,30.23,North,1,9.0,13.0,87,0.00,,---,0.00,VWS V14.00,2013-02-21 12:50:00,
2013-02-21 07:55:00,36.9,33.4,30.23,NNE,17,7.0,13.0,87,0.00,,---,0.00,VWS V14.00,2013-02-21 12:55:00,
2013-02-21 08:00:00,36.9,33.7,30.23,North,2,8.0,13.0,88,0.00,,---,0.00,VWS V14.00,2013-02-21 13:00:00,
2013-02-21 08:05:00,37.1,33.9,30.23,NNE,14,7.0,12.0,88,0.00,,---,0.00,VWS V14.00,2013-02-21 13:05:00,
2013-02-21 08:10:00,37.2,34.0,30.23,North,11,7.0,12.0,88,0.00,,---,0.00,VWS V14.00,2013-02-21 13:10:00,
2013-02-21 08:15:00,37.3,34.1,30.24,NNE,17,10.0,13.0,88,0.00,,---,0.00,VWS V14.00,2013-02-21 13:15:00,
2013-02-21 08:20:00,37.4,34.2,30.24,NNE,29,9.0,13.0,88,0.00,,---,0.00,VWS V14.00,2013-02-21 13:20:00,
2013-02-21 08:25:00,37.5,34.3,30.24,NNE,16,8.0,14.0,88,0.00,,---,0.00,VWS V14.00,2013-02-21 13:25:00,
2013-02-21 08:30:00,37.7,34.5,30.24,NNE,20,10.0,10.0,88,0.00,,---,0.00,VWS V14.00,2013-02-21 13:30:00,
2013-02-21 08:35:00,37.8,34.6,30.24,North,11,10.0,12.0,88,0.00,,---,0.00,VWS V14.00,2013-02-21 13:35:00,
2013-02-21 08:40:00,37.9,34.7,30.24,NE,53,7.0,12.0,88,0.00,,---,0.00,VWS V14.00,2013-02-21 13:40:00,
2013-02-21 08:45:00,38.0,35.0,30.25,NNE,27,11.0,14.0,89,0.00,,---,0.00,VWS V14.00,2013-02-21 13:45:00,
2013-02-21 08:50:00,38.1,34.9,30.24,NNE,15,7.0,14.0,88,0.00,,---,0.00,VWS V14.00,2013-02-21 13:50:00,
2013-02-21 08:55:00,38.2,35.0,30.24,NNE,28,13.0,14.0,88,0.00,,---,0.00,VWS V14.00,2013-02-21 13:55:00,
2013-02-21 09:00:00,38.3,35.1,30.24,NNE,22,12.0,12.0,88,0.00,,---,0.00,VWS V14.00,2013-02-21 14:00:00,
2013-02-21 09:05:00,38.5,35.3,30.24,NNE,12,8.0,12.0,88,0.00,,---,0.00,VWS V14.00,2013-02-21 14:05:00,
2013-02-21 09:10:00,38.7,35.7,30.24,North,10,11.0,13.0,89,0.00,,---,0.00,VWS V14.00,2013-02-21 14:10:00,
2013-02-21 09:15:00,38.8,35.8,30.24,NNE,18,9.0,13.0,89,0.00,,---,0.00,VWS V14.00,2013-02-21 14:15:00,
2013-02-21 09:20:00,39.0,36.0,30.24,North,10,9.0,13.0,89,0.00,,---,0.00,VWS V14.00,2013-02-21 14:20:00,
2013-02-21 09:25:00,39.1,35.6,30.24,NNE,22,8.0,13.0,87,0.00,,---,0.00,VWS V14.00,2013-02-21 14:25:00,
2013-02-21 09:30:00,39.2,35.4,30.24,NNE,32,8.0,9.0,86,0.00,,---,0.00,VWS V14.00,2013-02-21 14:30:00,
2013-02-21 09:35:00,39.4,35.6,30.24,NNE,15,8.0,12.0,86,0.00,,---,0.00,VWS V14.00,2013-02-21 14:35:00,
2013-02-21 09:40:00,39.5,35.7,30.24,North,1,6.0,12.0,86,0.00,,---,0.00,VWS V14.00,2013-02-21 14:40:00,
2013-02-21 09:45:00,39.7,35.9,30.24,North,7,9.0,12.0,86,0.00,,---,0.00,VWS V14.00,2013-02-21 14:45:00,
2013-02-21 09:50:00,39.8,35.1,30.24,North,6,5.0,12.0,83,0.00,,---,0.00,VWS V14.00,2013-02-21 14:50:00,
2013-02-21 09:55:00,40.0,35.3,30.25,NNE,20,10.0,13.0,83,0.00,,---,0.00,VWS V14.00,2013-02-21 14:55:00,
2013-02-21 10:00:00,40.1,34.8,30.25,NNE,25,10.0,13.0,81,0.00,,---,0.00,VWS V14.00,2013-02-21 15:00:00,
2013-02-21 10:05:00,40.2,35.2,30.24,NE,34,9.0,11.0,82,0.00,,---,0.00,VWS V14.00,2013-02-21 15:05:00,
2013-02-21 10:10:00,40.3,34.9,30.24,NNE,29,9.0,11.0,81,0.00,,---,0.00,VWS V14.00,2013-02-21 15:10:00,
2013-02-21 10:15:00,40.5,35.5,30.24,North,11,3.0,11.0,82,0.00,,---,0.00,VWS V14.00,2013-02-21 15:15:00,
2013-02-21 10:20:00,40.6,35.2,30.24,North,7,8.0,11.0,81,0.00,,---,0.00,VWS V14.00,2013-02-21 15:20:00,
2013-02-21 10:25:00,40.8,35.1,30.24,North,1,6.0,11.0,80,0.00,,---,0.00,VWS V14.00,2013-02-21 15:25:00,
2013-02-21 10:30:00,40.9,34.9,30.24,NNE,15,6.0,11.0,79,0.00,,---,0.00,VWS V14.00,2013-02-21 15:30:00,
2013-02-21 10:35:00,41.1,34.8,30.23,North,0,2.0,9.0,78,0.00,,---,0.00,VWS V14.00,2013-02-21 15:35:00,
2013-02-21 10:40:00,41.3,35.6,30.23,NNE,15,3.0,9.0,80,0.00,,---,0.00,VWS V14.00,2013-02-21 15:40:00,
2013-02-21 10:45:00,41.4,35.1,30.23,NNE,20,4.0,9.0,78,0.00,,---,0.00,VWS V14.00,2013-02-21 15:45:00,
2013-02-21 10:50:00,41.5,34.5,30.23,North,0,2.0,9.0,76,0.00,,---,0.00,VWS V14.00,2013-02-21 15:50:00,
2013-02-21 10:55:00,41.7,35.0,30.23,North,0,6.0,9.0,77,0.00,,---,0.00,VWS V14.00,2013-02-21 15:55:00,
2013-02-21 11:00:00,41.8,35.1,30.23,North,0,2.0,2.0,77,0.00,,---,0.00,VWS V14.00,2013-02-21 16:00:00,
2013-02-21 11:05:00,41.8,34.5,30.22,NNE,32,3.0,6.0,75,0.00,,---,0.00,VWS V14.00,2013-02-21 16:05:00,
2013-02-21 11:10:00,41.9,33.5,30.22,NNE,20,2.0,8.0,72,0.00,,---,0.00,VWS V14.00,2013-02-21 16:10:00,
2013-02-21 11:15:00,42.1,34.1,30.22,North,4,7.0,8.0,73,0.00,,---,0.00,VWS V14.00,2013-02-21 16:15:00,
2013-02-21 11:20:00,42.3,34.6,30.22,North,358,3.0,8.0,74,0.00,,---,0.00,VWS V14.00,2013-02-21 16:20:00,
2013-02-21 11:25:00,42.4,34.7,30.21,North,358,3.0,8.0,74,0.00,,---,0.00,VWS V14.00,2013-02-21 16:25:00,
2013-02-21 11:30:00,42.6,34.9,30.21,NNE,20,3.0,3.0,74,0.00,,---,0.00,VWS V14.00,2013-02-21 16:30:00,
2013-02-21 11:35:00,42.8,34.8,30.21,NE,39,1.0,5.0,73,0.00,,---,0.00,VWS V14.00,2013-02-21 16:35:00,
2013-02-21 11:40:00,43.0,35.3,30.21,North,0,2.0,8.0,74,0.00,,---,0.00,VWS V14.00,2013-02-21 16:40:00,
2013-02-21 11:45:00,43.1,34.7,30.21,North,0,0.0,8.0,72,0.00,,---,0.00,VWS V14.00,2013-02-21 16:45:00,
2013-02-21 11:50:00,43.3,35.2,30.21,North,1,0.0,8.0,73,0.00,,---,0.00,VWS V14.00,2013-02-21 16:50:00,
2013-02-21 11:55:00,43.3,34.9,30.22,North,1,0.0,8.0,72,0.00,,---,0.00,VWS V14.00,2013-02-21 16:55:00,
2013-02-21 12:00:00,43.3,34.9,30.21,North,1,0.0,8.0,72,0.00,,---,0.00,VWS V14.00,2013-02-21 17:00:00,
2013-02-21 12:05:00,43.3,35.9,30.21,North,1,0.0,0.0,75,0.00,,---,0.00,VWS V14.00,2013-02-21 17:05:00,
2013-02-21 12:10:00,43.4,35.7,30.20,North,1,0.0,0.0,74,0.00,,---,0.00,VWS V14.00,2013-02-21 17:10:00,
2013-02-21 12:15:00,43.5,35.1,30.21,North,1,0.0,0.0,72,0.00,,---,0.00,VWS V14.00,2013-02-21 17:15:00,
2013-02-21 12:20:00,43.8,34.7,30.20,NNE,17,2.0,4.0,70,0.00,,---,0.00,VWS V14.00,2013-02-21 17:20:00,
2013-02-21 12:25:00,44.1,35.0,30.20,ENE,77,1.0,4.0,70,0.00,,---,0.00,VWS V14.00,2013-02-21 17:25:00,
2013-02-21 12:30:00,44.4,34.9,30.20,North,352,3.0,3.0,69,0.00,,---,0.00,VWS V14.00,2013-02-21 17:30:00,
2013-02-21 12:35:00,44.7,35.5,30.20,NW,309,1.0,8.0,70,0.00,,---,0.00,VWS V14.00,2013-02-21 17:35:00,
2013-02-21 12:40:00,44.9,35.7,30.20,NW,325,3.0,8.0,70,0.00,,---,0.00,VWS V14.00,2013-02-21 17:40:00,
2013-02-21 12:45:00,45.3,36.5,30.20,NNW,328,1.0,8.0,71,0.00,,---,0.00,VWS V14.00,2013-02-21 17:45:00,
2013-02-21 12:50:00,45.6,36.8,30.20,NW,311,3.0,8.0,71,0.00,,---,0.00,VWS V14.00,2013-02-21 17:50:00,
2013-02-21 12:55:00,45.8,37.3,30.19,NW,312,4.0,8.0,72,0.00,,---,0.00,VWS V14.00,2013-02-21 17:55:00,
2013-02-21 13:00:00,46.1,36.5,30.19,NW,312,0.0,8.0,69,0.00,,---,0.00,VWS V14.00,2013-02-21 18:00:00,
2013-02-21 13:05:00,46.3,37.4,30.19,West,259,0.0,5.0,71,0.00,,---,0.00,VWS V14.00,2013-02-21 18:05:00,
2013-02-21 13:10:00,46.9,39.1,30.19,South,181,2.0,5.0,74,0.00,,---,0.00,VWS V14.00,2013-02-21 18:10:00,
2013-02-21 13:15:00,47.9,40.0,30.18,SSW,195,3.0,8.0,74,0.00,,---,0.00,VWS V14.00,2013-02-21 18:15:00,
2013-02-21 13:20:00,48.7,40.1,30.19,South,188,3.0,8.0,72,0.00,,---,0.00,VWS V14.00,2013-02-21 18:20:00,
2013-02-21 13:25:00,49.1,41.2,30.18,South,185,4.0,10.0,74,0.00,,---,0.00,VWS V14.00,2013-02-21 18:25:00,
2013-02-21 13:30:00,49.3,40.7,30.18,WSW,246,4.0,6.0,72,0.00,,---,0.00,VWS V14.00,2013-02-21 18:30:00,
2013-02-21 13:35:00,49.6,41.0,30.18,South,184,3.0,7.0,72,0.00,,---,0.00,VWS V14.00,2013-02-21 18:35:00,
2013-02-21 13:40:00,49.5,41.2,30.18,SW,230,3.0,12.0,73,0.00,,---,0.00,VWS V14.00,2013-02-21 18:40:00,
2013-02-21 13:45:00,49.7,41.0,30.17,SSW,192,3.0,12.0,72,0.00,,---,0.00,VWS V14.00,2013-02-21 18:45:00,
2013-02-21 13:50:00,49.9,40.9,30.18,South,184,6.0,12.0,71,0.00,,---,0.00,VWS V14.00,2013-02-21 18:50:00,
2013-02-21 13:55:00,49.9,41.2,30.17,SSW,192,4.0,12.0,72,0.00,,---,0.00,VWS V14.00,2013-02-21 18:55:00,
2013-02-21 14:00:00,49.9,41.2,30.17,South,175,8.0,12.0,72,0.00,,---,0.00,VWS V14.00,2013-02-21 19:00:00,
2013-02-21 14:05:00,50.0,41.0,30.17,South,177,6.0,13.0,71,0.00,,---,0.00,VWS V14.00,2013-02-21 19:05:00,
2013-02-21 14:10:00,50.1,41.4,30.17,South,176,5.0,13.0,72,0.00,,---,0.00,VWS V14.00,2013-02-21 19:10:00,
2013-02-21 14:15:00,50.1,40.7,30.17,SW,214,11.0,13.0,70,0.00,,---,0.00,VWS V14.00,2013-02-21 19:15:00,
2013-02-21 14:20:00,50.5,41.1,30.17,South,184,4.0,13.0,70,0.00,,---,0.00,VWS V14.00,2013-02-21 19:20:00,
2013-02-21 14:25:00,50.6,40.8,30.16,SW,221,8.0,13.0,69,0.00,,---,0.00,VWS V14.00,2013-02-21 19:25:00,
2013-02-21 14:30:00,50.6,40.8,30.16,South,178,4.0,13.0,69,0.00,,---,0.00,VWS V14.00,2013-02-21 19:30:00,
2013-02-21 14:35:00,50.6,40.8,30.16,SSW,199,5.0,7.0,69,0.00,,---,0.00,VWS V14.00,2013-02-21 19:35:00,
2013-02-21 14:40:00,50.6,41.2,30.16,South,185,6.0,9.0,70,0.00,,---,0.00,VWS V14.00,2013-02-21 19:40:00,
2013-02-21 14:45:00,50.5,41.1,30.16,SW,222,9.0,13.0,70,0.00,,---,0.00,VWS V14.00,2013-02-21 19:45:00,
2013-02-21 14:50:00,50.6,41.2,30.16,SSW,211,11.0,13.0,70,0.00,,---,0.00,VWS V14.00,2013-02-21 19:50:00,
2013-02-21 14:55:00,50.7,41.3,30.16,SSW,202,6.0,13.0,70,0.00,,---,0.00,VWS V14.00,2013-02-21 19:55:00,
2013-02-21 15:00:00,50.7,41.3,30.16,South,190,6.0,13.0,70,0.00,,---,0.00,VWS V14.00,2013-02-21 20:00:00,
2013-02-21 15:05:00,50.7,40.9,30.15,SSW,205,8.0,8.0,69,0.00,,---,0.00,VWS V14.00,2013-02-21 20:05:00,
2013-02-21 15:10:00,50.6,41.2,30.16,SSW,201,4.0,11.0,70,0.00,,---,0.00,VWS V14.00,2013-02-21 20:10:00,
2013-02-21 15:15:00,50.7,41.3,30.15,SSW,199,6.0,11.0,70,0.00,,---,0.00,VWS V14.00,2013-02-21 20:15:00,
2013-02-21 15:20:00,50.8,41.4,30.15,South,188,5.0,11.0,70,0.00,,---,0.00,VWS V14.00,2013-02-21 20:20:00,
2013-02-21 15:25:00,50.8,41.8,30.15,South,187,3.0,11.0,71,0.00,,---,0.00,VWS V14.00,2013-02-21 20:25:00,
2013-02-21 15:30:00,50.9,41.5,30.15,South,186,4.0,11.0,70,0.00,,---,0.00,VWS V14.00,2013-02-21 20:30:00,
2013-02-21 15:35:00,50.9,41.8,30.16,South,184,1.0,11.0,71,0.00,,---,0.00,VWS V14.00,2013-02-21 20:35:00,
2013-02-21 15:40:00,51.0,41.6,30.16,South,185,4.0,11.0,70,0.00,,---,0.00,VWS V14.00,2013-02-21 20:40:00,
2013-02-21 15:45:00,51.0,41.6,30.15,SSW,194,3.0,11.0,70,0.00,,---,0.00,VWS V14.00,2013-02-21 20:45:00,
2013-02-21 15:50:00,51.0,42.3,30.15,SSE,147,8.0,11.0,72,0.00,,---,0.00,VWS V14.00,2013-02-21 20:50:00,
2013-02-21 15:55:00,51.0,41.9,30.15,South,171,4.0,11.0,71,0.00,,---,0.00,VWS V14.00,2013-02-21 20:55:00,
2013-02-21 16:00:00,51.0,42.3,30.15,SSE,154,3.0,11.0,72,0.00,,---,0.00,VWS V14.00,2013-02-21 21:00:00,
2013-02-21 16:05:00,51.0,41.9,30.14,SSE,166,0.0,7.0,71,0.00,,---,0.00,VWS V14.00,2013-02-21 21:05:00,
2013-02-21 16:10:00,51.0,41.9,30.14,SE,126,0.0,7.0,71,0.00,,---,0.00,VWS V14.00,2013-02-21 21:10:00,
2013-02-21 16:15:00,50.9,41.8,30.15,SSE,163,4.0,7.0,71,0.00,,---,0.00,VWS V14.00,2013-02-21 21:15:00,
2013-02-21 16:20:00,50.8,41.8,30.15,SE,145,6.0,8.0,71,0.00,,---,0.00,VWS V14.00,2013-02-21 21:20:00,
2013-02-21 16:25:00,50.8,41.8,30.15,SSE,147,4.0,9.0,71,0.00,,---,0.00,VWS V14.00,2013-02-21 21:25:00,
2013-02-21 16:30:00,50.7,41.3,30.16,SSE,155,7.0,9.0,70,0.00,,---,0.00,VWS V14.00,2013-02-21 21:30:00,
2013-02-21 16:35:00,50.6,41.6,30.16,SE,144,6.0,7.0,71,0.00,,---,0.00,VWS V14.00,2013-02-21 21:35:00,
2013-02-21 16:40:00,50.5,41.1,30.16,SSE,166,3.0,7.0,70,0.00,,---,0.00,VWS V14.00,2013-02-21 21:40:00,
2013-02-21 16:45:00,50.4,41.0,30.16,SE,133,2.0,7.0,70,0.00,,---,0.00,VWS V14.00,2013-02-21 21:45:00,
2013-02-21 16:50:00,50.4,41.0,30.17,SE,132,1.0,7.0,70,0.00,,---,0.00,VWS V14.00,2013-02-21 21:50:00,
2013-02-21 16:55:00,50.4,41.0,30.17,SSE,165,3.0,7.0,70,0.00,,---,0.00,VWS V14.00,2013-02-21 21:55:00,
2013-02-21 17:00:00,50.3,40.9,30.17,South,190,2.0,3.0,70,0.00,,---,0.00,VWS V14.00,2013-02-21 22:00:00,
2013-02-21 17:05:00,50.2,41.2,30.17,SE,136,4.0,7.0,71,0.00,,---,0.00,VWS V14.00,2013-02-21 22:05:00,
2013-02-21 17:10:00,50.1,41.4,30.17,SSE,153,7.0,7.0,72,0.00,,---,0.00,VWS V14.00,2013-02-21 22:10:00,
2013-02-21 17:15:00,50.0,41.0,30.17,SSE,154,3.0,7.0,71,0.00,,---,0.00,VWS V14.00,2013-02-21 22:15:00,
2013-02-21 17:20:00,49.8,41.2,30.17,SSE,152,5.0,7.0,72,0.00,,---,0.00,VWS V14.00,2013-02-21 22:20:00,
2013-02-21 17:25:00,49.6,40.6,30.17,SSE,164,5.0,7.0,71,0.00,,---,0.00,VWS V14.00,2013-02-21 22:25:00,
2013-02-21 17:30:00,49.5,40.5,30.17,SE,134,2.0,7.0,71,0.00,,---,0.00,VWS V14.00,2013-02-21 22:30:00,
2013-02-21 17:35:00,49.2,40.2,30.18,SSE,154,1.0,5.0,71,0.00,,---,0.00,VWS V14.00,2013-02-21 22:35:00,
2013-02-21 17:40:00,48.9,40.3,30.18,SSE,149,0.0,5.0,72,0.00,,---,0.00,VWS V14.00,2013-02-21 22:40:00,
2013-02-21 17:45:00,48.7,39.7,30.18,SE,128,0.0,5.0,71,0.00,,---,0.00,VWS V14.00,2013-02-21 22:45:00,
2013-02-21 17:50:00,48.5,39.9,30.18,SE,126,0.0,5.0,72,0.00,,---,0.00,VWS V14.00,2013-02-21 22:50:00,
2013-02-21 17:55:00,48.3,40.4,30.18,ESE,120,2.0,5.0,74,0.00,,---,0.00,VWS V14.00,2013-02-21 22:55:00,
2013-02-21 18:00:00,48.1,40.2,30.19,ESE,120,0.0,5.0,74,0.00,,---,0.00,VWS V14.00,2013-02-21 23:00:00,
2013-02-21 18:05:00,47.9,40.4,30.20,ESE,120,0.0,0.0,75,0.00,,---,0.00,VWS V14.00,2013-02-21 23:05:00,
2013-02-21 18:10:00,47.7,40.5,30.20,ESE,120,0.0,0.0,76,0.00,,---,0.00,VWS V14.00,2013-02-21 23:10:00,
2013-02-21 18:15:00,47.5,40.0,30.20,ESE,120,0.0,0.0,75,0.00,,---,0.00,VWS V14.00,2013-02-21 23:15:00,
2013-02-21 18:20:00,47.3,39.8,30.21,ESE,120,0.0,0.0,75,0.00,,---,0.00,VWS V14.00,2013-02-21 23:20:00,
2013-02-21 18:25:00,47.1,39.9,30.21,ESE,120,0.0,0.0,76,0.00,,---,0.00,VWS V14.00,2013-02-21 23:25:00,
2013-02-21 18:30:00,46.9,40.4,30.21,ESE,120,0.0,0.0,78,0.00,,---,0.00,VWS V14.00,2013-02-21 23:30:00,
2013-02-21 18:35:00,46.8,40.6,30.21,ESE,120,0.0,0.0,79,0.00,,---,0.00,VWS V14.00,2013-02-21 23:35:00,
2013-02-21 18:40:00,46.7,40.5,30.21,ESE,120,0.0,0.0,79,0.00,,---,0.00,VWS V14.00,2013-02-21 23:40:00,
2013-02-21 18:45:00,46.6,40.5,30.21,ESE,120,0.0,0.0,79,0.00,,---,0.00,VWS V14.00,2013-02-21 23:45:00,
2013-02-21 18:50:00,46.3,40.2,30.22,ESE,118,2.0,2.0,79,0.00,,---,0.00,VWS V14.00,2013-02-21 23:50:00,
2013-02-21 18:55:00,46.1,40.0,30.22,ESE,103,1.0,4.0,79,0.00,,---,0.00,VWS V14.00,2013-02-21 23:55:00,
2013-02-21 19:00:00,46.0,40.2,30.23,ENE,65,3.0,5.0,80,0.00,,---,0.00,VWS V14.00,2013-02-22 00:00:00,
2013-02-21 19:05:00,45.9,40.7,30.23,ENE,57,1.0,5.0,82,0.00,,---,0.00,VWS V14.00,2013-02-22 00:05:00,
2013-02-21 19:10:00,45.9,40.7,30.23,ENE,77,4.0,5.0,82,0.00,,---,0.00,VWS V14.00,2013-02-22 00:10:00,
2013-02-21 19:15:00,45.8,40.6,30.23,NE,52,4.0,5.0,82,0.00,,---,0.00,VWS V14.00,2013-02-22 00:15:00,
2013-02-21 19:20:00,45.8,40.6,30.24,ENE,64,3.0,8.0,82,0.00,,---,0.00,VWS V14.00,2013-02-22 00:20:00,
2013-02-21 19:25:00,45.7,40.5,30.24,ENE,72,1.0,8.0,82,0.00,,---,0.00,VWS V14.00,2013-02-22 00:25:00,
2013-02-21 19:30:00,45.6,40.4,30.25,ENE,74,1.0,4.0,82,0.00,,---,0.00,VWS V14.00,2013-02-22 00:30:00,
2013-02-21 19:35:00,45.5,40.3,30.25,ENE,71,5.0,6.0,82,0.00,,---,0.00,VWS V14.00,2013-02-22 00:35:00,
2013-02-21 19:40:00,45.4,40.2,30.25,ENE,78,3.0,6.0,82,0.00,,---,0.00,VWS V14.00,2013-02-22 00:40:00,
2013-02-21 19:45:00,45.3,39.8,30.25,ENE,76,4.0,6.0,81,0.00,,---,0.00,VWS V14.00,2013-02-22 00:45:00,
2013-02-21 19:50:00,45.3,39.8,30.26,ENE,76,3.0,6.0,81,0.00,,---,0.00,VWS V14.00,2013-02-22 00:50:00,
2013-02-21 19:55:00,45.1,39.9,30.26,ENE,69,5.0,6.0,82,0.00,,---,0.00,VWS V14.00,2013-02-22 00:55:00,
2013-02-21 20:00:00,45.0,39.8,30.27,ENE,68,2.0,6.0,82,0.00,,---,0.00,VWS V14.00,2013-02-22 01:00:00,
2013-02-21 20:05:00,45.0,39.8,30.27,ENE,76,2.0,4.0,82,0.00,,---,0.00,VWS V14.00,2013-02-22 01:05:00,
2013-02-21 20:10:00,44.8,40.0,30.27,East,79,0.0,4.0,83,0.00,,---,0.00,VWS V14.00,2013-02-22 01:10:00,
2013-02-21 20:15:00,44.8,39.7,30.26,NE,56,2.0,5.0,82,0.00,,---,0.00,VWS V14.00,2013-02-22 01:15:00,
2013-02-21 20:20:00,44.8,39.7,30.26,ENE,67,1.0,5.0,82,0.00,,---,0.00,VWS V14.00,2013-02-22 01:20:00,
2013-02-21 20:25:00,44.7,39.5,30.27,ENE,68,0.0,5.0,82,0.00,,---,0.00,VWS V14.00,2013-02-22 01:25:00,
2013-02-21 20:30:00,44.5,39.7,30.27,ENE,69,0.0,5.0,83,0.00,,---,0.00,VWS V14.00,2013-02-22 01:30:00,
2013-02-21 20:35:00,44.4,39.6,30.27,ENE,68,0.0,3.0,83,0.00,,---,0.00,VWS V14.00,2013-02-22 01:35:00,
2013-02-21 20:40:00,44.4,39.3,30.27,NE,56,4.0,4.0,82,0.00,,---,0.00,VWS V14.00,2013-02-22 01:40:00,
2013-02-21 20:45:00,44.4,39.6,30.27,NE,52,0.0,5.0,83,0.00,,---,0.00,VWS V14.00,2013-02-22 01:45:00,
2013-02-21 20:50:00,44.4,39.6,30.27,NE,39,4.0,5.0,83,0.00,,---,0.00,VWS V14.00,2013-02-22 01:50:00,
2013-02-21 20:55:00,44.4,39.6,30.28,NE,49,4.0,7.0,83,0.00,,---,0.00,VWS V14.00,2013-02-22 01:55:00,
2013-02-21 21:00:00,44.3,39.2,30.28,NE,51,8.0,10.0,82,0.00,,---,0.00,VWS V14.00,2013-02-22 02:00:00,
2013-02-21 21:05:00,44.3,39.2,30.27,ENE,57,5.0,10.0,82,0.00,,---,0.00,VWS V14.00,2013-02-22 02:05:00,
2013-02-21 21:10:00,44.3,38.8,30.27,ENE,65,3.0,11.0,81,0.00,,---,0.00,VWS V14.00,2013-02-22 02:10:00,
2013-02-21 21:15:00,44.3,38.5,30.28,NE,53,4.0,11.0,80,0.00,,---,0.00,VWS V14.00,2013-02-22 02:15:00,
2013-02-21 21:20:00,44.2,38.1,30.28,ENE,60,3.0,11.0,79,0.00,,---,0.00,VWS V14.00,2013-02-22 02:20:00,
2013-02-21 21:25:00,44.2,38.4,30.27,ENE,72,4.0,11.0,80,0.00,,---,0.00,VWS V14.00,2013-02-22 02:25:00,
2013-02-21 21:30:00,44.1,38.0,30.27,NE,48,6.0,9.0,79,0.00,,---,0.00,VWS V14.00,2013-02-22 02:30:00,
2013-02-21 21:35:00,44.0,38.2,30.27,ENE,67,8.0,11.0,80,0.00,,---,0.00,VWS V14.00,2013-02-22 02:35:00,
2013-02-21 21:40:00,44.0,38.2,30.27,ENE,59,5.0,11.0,80,0.00,,---,0.00,VWS V14.00,2013-02-22 02:40:00,
2013-02-21 21:45:00,43.9,38.1,30.28,ENE,63,6.0,11.0,80,0.00,,---,0.00,VWS V14.00,2013-02-22 02:45:00,
2013-02-21 21:50:00,43.9,38.5,30.28,ENE,77,5.0,11.0,81,0.00,,---,0.00,VWS V14.00,2013-02-22 02:50:00,
2013-02-21 21:55:00,43.8,38.4,30.28,ENE,65,7.0,11.0,81,0.00,,---,0.00,VWS V14.00,2013-02-22 02:55:00,
2013-02-21 22:00:00,43.8,38.4,30.28,ENE,58,6.0,7.0,81,0.00,,---,0.00,VWS V14.00,2013-02-22 03:00:00,
2013-02-21 22:05:00,43.7,38.9,30.28,ENE,62,3.0,9.0,83,0.00,,---,0.00,VWS V14.00,2013-02-22 03:05:00,
2013-02-21 22:10:00,43.7,38.9,30.28,ENE,75,5.0,11.0,83,0.00,,---,0.00,VWS V14.00,2013-02-22 03:10:00,
2013-02-21 22:15:00,43.6,38.8,30.28,NE,49,5.0,11.0,83,0.00,,---,0.00,VWS V14.00,2013-02-22 03:15:00,
2013-02-21 22:20:00,43.5,38.4,30.28,ENE,65,8.0,11.0,82,0.00,,---,0.00,VWS V14.00,2013-02-22 03:20:00,
2013-02-21 22:25:00,43.5,38.1,30.28,ENE,74,3.0,11.0,81,0.00,,---,0.00,VWS V14.00,2013-02-22 03:25:00,
2013-02-21 22:30:00,43.4,38.3,30.28,ENE,65,3.0,11.0,82,0.00,,---,0.00,VWS V14.00,2013-02-22 03:30:00,
2013-02-21 22:35:00,43.4,38.3,30.28,ENE,75,7.0,9.0,82,0.00,,---,0.00,VWS V14.00,2013-02-22 03:35:00,
2013-02-21 22:40:00,43.3,37.9,30.28,ENE,65,5.0,9.0,81,0.00,,---,0.00,VWS V14.00,2013-02-22 03:40:00,
2013-02-21 22:45:00,43.3,38.2,30.28,NE,36,4.0,12.0,82,0.00,,---,0.00,VWS V14.00,2013-02-22 03:45:00,
2013-02-21 22:50:00,43.2,38.1,30.28,NNE,33,10.0,12.0,82,0.00,,---,0.00,VWS V14.00,2013-02-22 03:50:00,
2013-02-21 22:55:00,43.2,38.1,30.28,NE,55,3.0,12.0,82,0.00,,---,0.00,VWS V14.00,2013-02-22 03:55:00,
2013-02-21 23:00:00,43.1,37.7,30.28,ENE,63,3.0,13.0,81,0.00,,---,0.00,VWS V14.00,2013-02-22 04:00:00,
2013-02-21 23:05:00,43.1,38.0,30.28,NE,40,7.0,13.0,82,0.00,,---,0.00,VWS V14.00,2013-02-22 04:05:00,
2013-02-21 23:10:00,43.0,38.2,30.29,NE,42,9.0,13.0,83,0.00,,---,0.00,VWS V14.00,2013-02-22 04:10:00,
2013-02-21 23:15:00,42.9,38.4,30.29,NE,40,5.0,13.0,84,0.00,,---,0.00,VWS V14.00,2013-02-22 04:15:00,
2013-02-21 23:20:00,42.9,38.4,30.28,ENE,72,4.0,13.0,84,0.00,,---,0.00,VWS V14.00,2013-02-22 04:20:00,
2013-02-21 23:25:00,42.7,38.5,30.28,NE,41,11.0,14.0,85,0.00,,---,0.00,VWS V14.00,2013-02-22 04:25:00,
2013-02-21 23:30:00,42.7,38.8,30.28,NE,47,5.0,15.0,86,0.00,,---,0.00,VWS V14.00,2013-02-22 04:30:00,
2013-02-21 23:35:00,42.6,38.7,30.28,ENE,65,4.0,13.0,86,0.00,,---,0.00,VWS V14.00,2013-02-22 04:35:00,
2013-02-21 23:40:00,42.5,38.6,30.29,NE,51,9.0,13.0,86,0.00,,---,0.00,VWS V14.00,2013-02-22 04:40:00,
2013-02-21 23:45:00,42.5,38.6,30.30,NE,52,3.0,13.0,86,0.00,,---,0.00,VWS V14.00,2013-02-22 04:45:00,
2013-02-21 23:50:00,42.5,38.6,30.30,NE,55,5.0,13.0,86,0.00,,---,0.00,VWS V14.00,2013-02-22 04:50:00,
2013-02-21 23:55:00,42.4,38.8,30.30,NNE,20,5.0,13.0,87,0.00,,---,0.00,VWS V14.00,2013-02-22 04:55:00,